Home > Time Zones > World Clock > Weather > Spain > Palma > Past weeks

Flag for Spain Weather past 2 weeks in Palma, Majorca, Spain

Now
84 °F

Passing clouds.


Feels Like: 87 °F
Forecast: 68 / 86 °F
Wind: 12 mph from Southwest

Location: Palma De Mallorca / Son San Juan

Current Time: Jul 26, 2014 at 6:14:45 PM

Latest Report: Jul 26, 2014 at 5:30 PM


Visibility: N/A

Pressure: 29.95 "Hg

Humidity: 55%

Dew point: 66 °F

Location of PalmaLocation

Historic Weather in Palma — Graph

°F

Palma temperature yesterday

Maximum temperature yesterday: 91 °F (at 4:00 PM)
Minimum temperature yesterday: 68 °F (at 6:30 AM)
Average temperature yesterday: 81 °F

Past Weeks' High & Low Weather Summary

 TemperatureHumidityPressure
High97 °F (Jul 18, 1:30 PM)89% (Jul 19, 11:30 PM)30.12 "Hg (Jul 19, 11:30 PM)
Low63 °F (Jul 12, 4:30 AM)20% (Jul 18, 1:30 PM)29.80 "Hg (Jul 20, 4:00 AM)
Average78 °F63%29.98 "Hg
* Reported Jul 11 5:00 PM — Jul 26 5:00 PM, Palma, Weather by CustomWeather, © 2014

Note: Actual official high and low records may vary slightly from our data, if they occured in-between our weather recording intervals... More about our weather records

Advertising

Palma weather history for previous 24 hours

 ConditionsComfort  
Time TempWeatherWind HumidityBarometerVisibility
5:00 PM
Jul 26
84 °FPassing clouds.15 mph58%29.95 "HgN/A
4:30 PM84 °FPassing clouds.15 mph58%29.95 "HgN/A
4:00 PM84 °FPassing clouds.14 mph62%29.95 "HgN/A
3:30 PM86 °FPassing clouds.14 mph55%29.95 "HgN/A
3:00 PM86 °FPassing clouds.16 mph59%29.95 "HgN/A
2:30 PM91 °FPassing clouds.8 mph28%29.95 "HgN/A
2:00 PM90 °FPassing clouds.13 mph27%29.95 "HgN/A
1:30 PM90 °FPassing clouds.14 mph27%29.95 "HgN/A
1:00 PM90 °FPassing clouds.13 mph27%29.95 "HgN/A
12:30 PM88 °FPassing clouds.16 mph33%29.95 "HgN/A
12:00 PM86 °FPassing clouds.17 mph43%29.95 "HgN/A
11:30 AM86 °FPassing clouds.15 mph46%29.95 "HgN/A
11:00 AM84 °FPassing clouds.17 mph51%29.95 "HgN/A
10:30 AM84 °FSunny.18 mph51%29.95 "Hg10 mi
10:00 AM82 °FSunny.20 mph55%29.95 "Hg10 mi
9:30 AM81 °FPassing clouds.12 mph62%29.95 "HgN/A
9:00 AM79 °FPassing clouds.10 mph65%29.92 "HgN/A
8:30 AM77 °FPassing clouds.10 mph65%29.92 "HgN/A
8:00 AM75 °FPassing clouds.2 mph69%29.92 "HgN/A
7:30 AM73 °FPassing clouds.3 mph74%29.92 "HgN/A
7:00 AM68 °FPassing clouds.3 mph78%29.92 "HgN/A
6:30 AM70 °FPassing clouds.No wind78%29.92 "HgN/A
6:00 AM70 °FClear.No wind78%29.89 "Hg10 mi
5:30 AM70 °FClear.No wind78%29.89 "Hg10 mi
5:00 AM72 °FClear.No wind73%29.89 "Hg10 mi
4:30 AM72 °FClear.No wind73%29.89 "Hg10 mi
4:00 AM72 °FClear.No wind73%29.86 "Hg10 mi
3:30 AM73 °FClear.1 mph83%29.89 "Hg10 mi
3:00 AM73 °FClear.5 mph83%29.86 "Hg10 mi
2:30 AM73 °FClear.6 mph83%29.89 "Hg10 mi
2:00 AM75 °FClear.6 mph78%29.89 "Hg10 mi
1:30 AM75 °FClear.9 mph78%29.89 "Hg10 mi
1:00 AM77 °FClear.8 mph69%29.89 "Hg10 mi
12:30 AM77 °FClear.8 mph65%29.86 "Hg10 mi
12:00 AM77 °FClear.9 mph65%29.86 "Hg10 mi
11:30 PM
Jul 25
77 °FClear.3 mph61%29.86 "Hg10 mi
10:30 PM81 °FPassing clouds.5 mph54%29.86 "HgN/A
10:00 PM82 °FSunny.1 mph55%29.86 "Hg10 mi
9:30 PM81 °FSunny.No wind66%29.83 "Hg10 mi
9:00 PM82 °FSunny.No wind58%29.83 "Hg10 mi
8:30 PM84 °FSunny.2 mph58%29.83 "Hg10 mi
8:00 PM84 °FPassing clouds.7 mph55%29.83 "HgN/A
7:30 PM86 °FSunny.12 mph52%29.83 "Hg10 mi
7:00 PM86 °FSunny.12 mph55%29.80 "Hg10 mi
6:30 PM86 °FPassing clouds.13 mph55%29.80 "HgN/A
6:00 PM91 °FPassing clouds.9 mph34%29.80 "HgN/A
Weather by CustomWeather, © 2014

See weather overviewHow to use our weather pages